Regional Weather Roundup
Issued by NWS Charleston, SC

Current Version | Previous Version | Text Only | Print | Product List | Glossary Off
Versions: 1 2 3 4 5 6 7 8 9 10 11 12 13 14 15 16 17 18 19 20 21 22 23 24 25 26 27 28 29 30 31 32 33 34 35 36 37 38 39 40 41 42 43 44 45 46 47 48 49 50
000 ASUS42 KCHS 222012 RWRCHS REGIONAL WEATHER ROUNDUP NATIONAL WEATHER SERVICE CHARLESTON SC 300 PM EST SUN JAN 22 2017 NOTE: "FAIR" INDICATES FEW OR NO CLOUDS BELOW 12,000 FEET WITH NO SIGNIFICANT WEATHER AND/OR OBSTRUCTIONS TO VISIBILITY. NOT ALL STATIONS ARE QUALITY CONTROLLED. USE DATA WITH CAUTION... ESPECIALLY DEWPOINT OBSERVATIONS. SCZ027-030-031-034>040-042>050-222100- ...SOUTHEAST SOUTH CAROLINA... CITY SKY/WX TMP DP RH WIND PRES REMARKS N CHARLESTON RAIN 62 59 90 SW9 29.54S FOG WATERFRONT PRK N/A 63 60 90 SW7G16 29.54R MOUNT PLEASANT RAIN 63 61 94 W8 29.56R JOHNS ISLAND LGT RAIN 63 61 94 W10 29.58R PINOPOLIS N/A N/A N/A N/A CALM 29.44S MONCKS CORNER LGT RAIN 61 59 94 SW10 29.54S SUMMERVILLE RAIN N/A N/A N/A S9 29.55R BEAUFORT MCAS TSTM 62 60 93 SE8 29.52F BEAUFORT ARPT LGT RAIN 61 59 94 E3 29.48F HILTON HEAD IS NOT AVBL WALTERBORO RAIN 61 59 94 N7 29.49F ALLENDALE LGT RAIN 63 61 94 VRB6 29.42F ...SOUTHERN MIDLANDS AND PEE DEE... CITY SKY/WX TMP DP RH WIND PRES REMARKS GEORGETOWN CLOUDY 61 61 100 S10 29.52F KINGSTREE MOCLDY 63 59 88 S7 29.53R ORANGEBURG LGT RAIN 63 60 90 SW17G26 29.55R BARNWELL DRIZZLE 64 63 94 E7 29.46F AIKEN HVY RAIN 61 59 94 NE6 29.49F MANNING FAIR 61 57 88 S5 29.53R COLUMBIA CLOUDY 66 59 78 S14 29.52R SUMTER CLOUDY 64 58 82 S9 29.51R FLORENCE CLOUDY 65 60 84 S12 29.53R MYRTLE BEACH PTSUNNY 61 57 88 SW9 29.57R N MYRTLE BEACH CLOUDY 62 59 90 S9 29.54R $$ GAZ063-065-086>088-099>101-113>116-118-119-134>141-150-222100- ...SOUTHEAST GEORGIA... CITY SKY/WX TMP DP RH WIND PRES REMARKS SAVANNAH ARPT LGT RAIN 62 60 93 SE10G21 29.50F HUNTER AAF PTSUNNY 62 62 100 SE8G17 29.47F FORT STEWART CLOUDY 63 61 94 SE8 29.44F STATESBORO RAIN 62 32 32 SE8 29.46R SYLVANIA CLOUDY N/A N/A N/A S7 29.45S CLAXTON RAIN N/A N/A N/A E5 29.45F ...CSRA...CENTRAL AND FAR SOUTHEAST GEORGIA... CITY SKY/WX TMP DP RH WIND PRES REMARKS THOMSON CLOUDY 64 64 100 E5 29.43F AUGUSTA-BUSH LGT RAIN 65 61 87 S7 29.42F AUGUSTA-DANIEL CLOUDY 63 60 90 E8G23 29.42F SWAINSBORO CLOUDY 63 63 100 SE13 29.43R VIDALIA LGT RAIN 64 64 100 SE8 29.41F EASTMAN CLOUDY 67 66 98 SE5 29.37F HAZLEHURST CLOUDY 65 65 100 SE7 29.38F ALMA CLOUDY 64 64 100 SE8 29.41F WAYCROSS CLOUDY 67 67 100 SE10 29.43F JESUP CLOUDY 64 61 88 SE3 29.46F BAXLEY CLOUDY 64 64 100 SE8 29.42F BRUNSWICK LGT RAIN 63 63 100 E7 29.50F SAINT SIMONS CLOUDY 63 61 93 SE7 29.52F $$ SCZ027-028-034-036>038-045-046-048>050-GAZ119-141-222100- ...LAKE AND SUPPLEMENTAL COASTAL OBSERVATIONS... STATION/POSITION TIME TEMP WIND PRES WAVE SWELL AIR SEA DIR/SP/G HT/PER HT/PER/DIR (UTC) (F) (DEG/KT/KT) (MB) (FT/S) (FT/S/D) WINYAH BAY 1845 59 160/ 9 998.0 LAKE MURRAY 1920 62 150/ 6/ 7 998.3 ACE BASIN NERRS 1845 62 180/ 3 1000.0 FORT PULASKI 1948 60 59 170/ 9/ 12 1000.1F SAPELO ISLAND 1900 61 130/ 5 1000.0 $$ ANZ835-935-AMZ111-154-330-350-352-354-370-450-454-472-222100- ...C-MAN AND BUOY OBSERVATIONS... STATION/POSITION TIME TEMP WIND PRES WAVE SWELL AIR SEA DIR/SP/G HT/PER HT/PER/DIR (UTC) (F) (DEG/KT/KT) (MB) (FT/S) (FT/S/D) BUOY 41004 1850 66 68 180/ 10/ 14 1000.6 6/ 7 5/180/ 7 BUOY 41008 1850 61 60 150/ 12/ 17 1000.2 4/ 6 3/150/ 6 FOLLY BEACH CMAN 1900 61 220/ 11/ 14 1000.5R CAPERS NEARSHORE 1908 59 57 200/ 14/ 17 999.7R FRIPP NEARSHORE 1908 60 58 210/ 6/ 10 1000.8R STATION/POSITION TIME TEMP WIND PRES WAVE SWELL AIR SEA DIR/SP/G HT/PER HT/PER/DIR (UTC) (F) (DEG/KT/KT) (MB) (FT/S) (FT/S/D) 5E ST. MARYS GA 1930 63 N/A 3/ 6 2/100/11 FRYING PAN BUOY 1950 67 69 200/ 16/ 19 1001.0R 4/ 7 2/160/13 BUOY 41025 1950 65 72 260/ 8/ 10 999.9F 4/11 3/ 80/11 CAPE LOOKOUT NC 1900 61 140/ 7/ 8 999.1F BUOY 41002 1850 73 71 190/ 21/ 27 1003.6 8/ 8 2/ 50/13 BUOY 41010 NOT AVBL ST AUGUSTINE FL 2000 78 67 220/ 19/ 26 998.7F $$

USA.gov is the U.S. government's official web portal to all federal, state and local government web resources and services.